Volk, WI

10:44 PM CST on January 23, 2018 (GMT -0600)
Volk

Weather History for KVOK - December, 2010

Change the Weather History Date:

Tuesday, December 14, 2010

  Actual Average Record
Temperature  
Mean Temperature -3 °F -  
Max Temperature 14 °F 29 °F 55 °F (2015)
Min Temperature -20 °F 17 °F -20 °F (2010)
Degree Days  
Heating Degree Days 68    
Moisture  
Dew Point -12 °F    
Average Humidity 78    
Maximum Humidity 92    
Minimum Humidity 62    
Precipitation  
Precipitation 0.00 in - - ()
Snow  
Snow 0.00 in - - ()
Snow Depth 13.00 in    
Sea Level Pressure  
Sea Level Pressure 30.27 in    
Wind  
Wind Speed 4 mph (West)    
Max Wind Speed 6 mph    
Max Gust Speed -    
Visibility 10 miles    
Events      
Averages and records for this station are not official NWS values.
T = Trace of Precipitation, MM = Missing Value Source: NWS Daily Summary

Daily Weather History Graph

Daily Weather History Graph

Search for Another Location

Airport or City:

Trip Planner

Search our weather history database for the weather conditions in past years. The results will help you decide how hot, cold, wet, or windy it might be!

Date:

Astronomy

Dec. 14, 2010 Rise Set
Actual Time 7:27 AM CST 4:23 PM CST
Civil Twilight 6:54 AM CST 4:56 PM CST
Nautical Twilight 6:18 AM CST 5:33 PM CST
Astronomical Twilight 5:43 AM CST 6:08 PM CST
Moon 12:13 PM CST (12/14) 12:37 AM CST (12/14)
Length of Visible Light 10h 01m
Length of Day
8h 55m
First Quarter, 61% of the Moon is Illuminated
Dec 14
First Quarter
Dec 21
Full
Dec 27
Last Quarter
Jan 4
New
Jan 12
First Quarter

Hourly Weather History & Observations

Time (CST) Temp. Windchill Dew Point Humidity Pressure Visibility Wind Dir Wind Speed Gust Speed Precip Events Conditions
12:55 AM -9.6 °F -22.9 °F -13.2 °F 84% 30.34 in 10.0 mi WNW 5.8 mph - N/A   Clear
1:55 AM -11.7 °F -23.6 °F -15.2 °F 85% 30.33 in 10.0 mi WNW 4.6 mph - N/A   Clear
2:55 AM -14.8 °F -27.2 °F -19.5 °F 79% 30.33 in 10.0 mi West 4.6 mph - N/A   Clear
3:55 AM -17.3 °F -30.1 °F -22.2 °F 79% 30.33 in 10.0 mi West 4.6 mph - N/A   Clear
4:55 AM -18.9 °F -29.5 °F -24.2 °F 77% 30.34 in 10.0 mi WNW 3.5 mph - N/A   Clear
5:55 AM -19.8 °F -35.1 °F -25.1 °F 77% 30.34 in 10.0 mi West 5.8 mph - N/A   Clear
6:55 AM -18.4 °F -28.9 °F -23.8 °F 76% 30.34 in 10.0 mi West 3.5 mph - N/A   Partly Cloudy
7:55 AM -20.2 °F -35.5 °F -25.6 °F 76% 30.34 in 10.0 mi West 5.8 mph - N/A   Scattered Clouds
8:55 AM -13.0 °F -25.1 °F -16.6 °F 84% 30.33 in 10.0 mi West 4.6 mph - N/A   Partly Cloudy
9:55 AM -2.2 °F - -5.8 °F 85% 30.32 in 10.0 mi Calm Calm - N/A   Scattered Clouds
10:55 AM 1.4 °F -6.2 °F -0.4 °F 92% 30.30 in 10.0 mi West 3.5 mph - N/A   Scattered Clouds
11:55 AM 6.8 °F -0.1 °F 3.2 °F 85% 30.27 in 10.0 mi West 3.5 mph - N/A   Scattered Clouds
12:55 PM 11.5 °F 5.3 °F 2.5 °F 67% 30.25 in 10.0 mi WSW 3.5 mph - N/A   Partly Cloudy
1:55 PM 14.0 °F 8.2 °F 3.2 °F 62% 30.22 in 10.0 mi WSW 3.5 mph - N/A   Partly Cloudy
2:55 PM 14.0 °F 6.5 °F 3.2 °F 62% 30.22 in 10.0 mi WSW 4.6 mph - N/A   Partly Cloudy
3:55 PM 10.4 °F 2.2 °F 1.4 °F 67% 30.22 in 10.0 mi WNW 4.6 mph - N/A   Partly Cloudy
4:55 PM 1.4 °F -9.9 °F -2.2 °F 85% 30.21 in 10.0 mi West 5.8 mph - N/A   Partly Cloudy
5:55 PM -0.4 °F - -4.0 °F 85% 30.22 in 10.0 mi Calm Calm - N/A   Clear
6:55 PM -5.8 °F -14.5 °F -9.4 °F 84% 30.22 in 10.0 mi WNW 3.5 mph - N/A   Clear
7:55 PM -7.6 °F - -11.2 °F 84% 30.21 in 10.0 mi Calm Calm - N/A   Clear
8:55 PM -11.2 °F - -16.6 °F 77% 30.22 in 10.0 mi Calm Calm - N/A   Clear
9:55 PM -14.8 °F - -20.2 °F 77% 30.20 in 10.0 mi Calm Calm - N/A   Clear
10:55 PM -13.0 °F - -18.4 °F 77% 30.19 in 10.0 mi Calm Calm - N/A   Clear
11:55 PM -20.2 °F - -25.6 °F 76% 30.20 in 10.0 mi Calm Calm - N/A   Partly Cloudy